�N����,����,�~����,�C��,���x,�C��,����,���ϕ���,�ő�u�ԕ���,�ő厞����,���˗�,�I�_���x,�n�����x,�ő啗���N��,DTYPE
"23/02/16","00:10",0.0,1.2,87.2,1022.0,283.2,1.5,2.8,316.0,0.00,-0.6,6.4,"00:00:22",1
"23/02/16","00:20",0.0,1.2,87.3,1022.0,319.5,2.1,2.9,325.3,0.00,-0.6,6.1,"00:11:50",1
"23/02/16","00:30",0.0,1.1,87.6,1022.3,311.9,2.0,2.7,327.2,0.00,-0.7,6.4,"00:20:30",1
"23/02/16","00:40",0.0,1.0,87.6,1022.5,326.4,1.5,3.4,328.8,0.00,-0.8,6.2,"00:39:22",1
"23/02/16","00:50",0.0,1.2,87.0,1022.5,316.1,2.6,3.5,339.8,0.00,-0.7,6.3,"00:42:28",1
"23/02/16","01:00",0.0,1.2,86.0,1022.5,305.1,2.5,2.9,323.0,0.00,-0.8,6.3,"00:58:46",1
"23/02/16","01:10",0.0,1.3,85.2,1022.7,292.8,2.1,2.7,332.5,0.00,-0.9,6.2,"01:04:18",1
"23/02/16","01:20",0.0,1.3,84.5,1022.3,304.4,2.3,3.4,324.0,0.00,-1.0,6.3,"01:18:44",1
"23/02/16","01:30",0.0,1.3,83.8,1022.7,302.3,2.6,2.9,311.3,0.00,-1.1,6.2,"01:20:40",1
"23/02/16","01:40",0.0,1.3,83.3,1022.7,306.4,2.3,2.7,334.4,0.00,-1.2,6.1,"01:34:52",1
"23/02/16","01:50",0.0,1.3,83.1,1022.3,317.4,2.8,3.9,340.7,0.00,-1.2,6.1,"01:45:16",1
"23/02/16","02:00",0.0,1.3,83.0,1022.3,309.1,2.6,3.5,330.0,0.00,-1.2,6.2,"01:54:46",1
"23/02/16","02:10",0.0,1.2,83.1,1022.3,325.3,2.8,3.7,348.9,0.00,-1.3,6.2,"02:09:40",1
"23/02/16","02:20",0.0,1.2,83.2,1022.3,309.6,2.5,3.6,337.4,0.00,-1.3,6.2,"02:17:02",1
"23/02/16","02:30",0.0,1.2,83.5,1022.7,317.5,2.8,4.4,339.2,0.00,-1.2,6.0,"02:20:02",1
"23/02/16","02:40",0.0,1.1,83.9,1022.5,306.6,2.5,3.6,330.9,0.00,-1.3,6.2,"02:30:22",1
"23/02/16","02:50",0.0,1.1,84.3,1022.5,307.2,2.3,3.1,322.1,0.00,-1.2,6.2,"02:40:58",1
"23/02/16","03:00",0.0,1.1,84.6,1022.5,315.0,2.7,3.3,320.9,0.00,-1.2,6.1,"02:53:50",1
"23/02/16","03:10",0.0,1.2,84.7,1022.3,309.5,2.6,3.7,332.3,0.00,-1.0,6.2,"03:06:44",1
"23/02/16","03:20",0.0,1.2,84.8,1022.5,315.1,2.5,3.2,318.3,0.00,-1.0,6.1,"03:10:16",1
"23/02/16","03:30",0.0,1.2,85.0,1022.5,317.4,2.6,3.5,331.9,0.00,-1.0,6.2,"03:25:40",1
"23/02/16","03:40",0.0,1.2,85.0,1022.5,301.3,2.2,2.9,318.9,0.00,-1.0,6.0,"03:30:20",1
"23/02/16","03:50",0.0,1.2,85.1,1022.5,315.9,2.3,3.6,328.5,0.00,-1.0,6.1,"03:44:32",1
"23/02/16","04:00",0.0,1.2,85.1,1023.0,320.4,2.2,3.2,321.2,0.00,-1.0,5.9,"03:54:06",1
"23/02/16","04:10",0.0,1.2,85.0,1023.0,320.5,2.7,3.7,325.4,0.00,-1.0,6.1,"04:04:50",1
"23/02/16","04:20",0.0,1.2,84.5,1022.7,313.8,2.6,5.0,341.3,0.00,-1.1,5.7,"04:12:24",1
"23/02/16","04:30",0.0,1.3,83.9,1022.5,322.4,2.7,3.7,337.7,0.00,-1.1,6.1,"04:28:04",1
"23/02/16","04:40",0.0,1.2,83.5,1023.2,317.9,2.6,3.6,330.0,0.00,-1.2,6.1,"04:38:32",1
"23/02/16","04:50",0.0,1.2,83.2,1023.0,321.8,2.8,3.7,333.7,0.00,-1.3,5.8,"04:43:04",1
"23/02/16","05:00",0.0,1.2,82.8,1022.7,323.7,3.0,4.2,332.6,0.00,-1.4,6.0,"04:54:30",1
"23/02/16","05:10",0.0,1.3,82.4,1023.2,304.4,2.6,3.7,317.3,0.00,-1.3,5.9,"05:00:18",1
"23/02/16","05:20",0.0,1.3,81.9,1023.0,317.0,2.8,3.5,336.1,0.00,-1.4,5.8,"05:11:00",1
"23/02/16","05:30",0.0,1.3,81.3,1023.0,307.7,2.8,4.0,331.9,0.00,-1.5,5.7,"05:22:40",1
"23/02/16","05:40",0.0,1.3,80.8,1023.0,298.4,2.3,3.6,320.2,0.00,-1.6,6.0,"05:30:58",1
"23/02/16","05:50",0.0,1.3,80.3,1023.0,313.5,2.7,3.6,330.7,0.00,-1.7,5.8,"05:41:16",1
"23/02/16","06:00",0.0,1.4,79.8,1022.7,308.6,2.8,3.7,331.0,0.00,-1.7,5.8,"05:55:40",1
"23/02/16","06:10",0.0,1.5,79.3,1023.0,310.7,2.5,3.6,328.3,0.00,-1.6,5.7,"06:00:08",1
"23/02/16","06:20",0.0,1.5,79.5,1023.2,318.1,2.3,3.4,335.5,0.00,-1.6,6.0,"06:11:14",1
"23/02/16","06:30",0.0,1.4,79.9,1023.2,317.9,2.6,3.7,321.1,0.00,-1.6,6.0,"06:25:02",1
"23/02/16","06:40",0.0,1.4,80.0,1023.2,316.7,2.8,3.7,318.9,0.00,-1.6,5.7,"06:31:16",1
"23/02/16","06:50",0.0,1.4,80.1,1023.4,317.5,2.7,3.9,324.9,0.00,-1.6,5.7,"06:45:02",1
"23/02/16","07:00",0.0,1.4,80.2,1023.2,314.5,2.7,3.9,319.6,0.00,-1.6,5.8,"06:54:46",1
"23/02/16","07:10",0.0,1.4,80.4,1023.7,314.6,2.8,4.0,323.1,0.00,-1.6,5.7,"07:08:34",1
"23/02/16","07:20",0.0,1.4,80.4,1023.4,315.0,3.0,3.9,323.2,0.00,-1.6,5.7,"07:15:38",1
"23/02/16","07:30",0.0,1.5,80.4,1023.7,319.0,3.1,3.9,323.7,0.00,-1.5,5.8,"07:22:56",1
"23/02/16","07:40",0.0,1.5,80.4,1023.7,317.4,3.1,4.4,326.0,0.00,-1.5,5.8,"07:34:38",1
"23/02/16","07:50",0.0,1.5,80.4,1023.9,306.8,2.7,3.9,332.5,0.00,-1.5,5.8,"07:40:08",1
"23/02/16","08:00",0.0,1.6,80.3,1023.9,316.4,2.8,3.7,323.2,0.00,-1.4,5.9,"07:50:52",1
"23/02/16","08:10",0.0,1.6,80.1,1024.1,315.7,3.1,4.3,321.1,0.00,-1.4,5.7,"08:04:04",1
"23/02/16","08:20",0.0,1.7,80.0,1024.6,313.2,2.5,3.7,325.4,0.00,-1.3,5.8,"08:13:48",1
"23/02/16","08:30",0.0,1.7,79.9,1023.9,312.0,2.5,4.4,333.7,0.00,-1.4,5.7,"08:29:12",1
"23/02/16","08:40",0.0,1.9,79.5,1024.1,305.2,2.7,4.0,320.0,0.00,-1.2,5.7,"08:36:48",1
"23/02/16","08:50",0.0,1.9,79.2,1024.6,310.4,3.1,5.4,340.4,0.00,-1.3,5.8,"08:48:52",1
"23/02/16","09:00",0.0,2.0,79.1,1024.6,307.9,2.7,4.1,341.9,0.00,-1.2,5.6,"08:51:12",1
"23/02/16","09:10",0.0,2.0,79.2,1024.9,303.8,2.6,4.1,317.2,0.01,-1.2,6.0,"09:03:42",1
"23/02/16","09:20",0.0,2.0,79.1,1024.6,316.6,3.1,5.0,329.9,0.01,-1.2,5.9,"09:17:18",1
"23/02/16","09:30",0.0,2.0,79.0,1024.9,318.5,3.0,4.5,332.8,0.01,-1.2,5.7,"09:25:12",1
"23/02/16","09:40",0.0,2.1,79.0,1025.1,304.3,2.5,3.6,339.7,0.02,-1.1,5.7,"09:38:58",1
"23/02/16","09:50",0.0,2.2,78.7,1025.6,306.6,2.7,4.9,317.7,0.02,-1.1,5.5,"09:45:42",1
"23/02/16","10:00",0.0,2.3,78.3,1025.3,308.1,2.3,3.3,342.9,0.03,-1.0,5.8,"09:58:34",1
"23/02/16","10:10",0.0,2.3,78.2,1025.1,325.0,2.8,4.8,324.6,0.04,-1.1,5.7,"10:01:20",1
"23/02/16","10:20",0.0,2.4,78.0,1025.1,315.5,3.4,4.0,317.5,0.04,-1.0,5.6,"10:18:48",1
"23/02/16","10:30",0.0,2.5,77.8,1024.9,304.9,3.1,4.5,298.2,0.05,-0.9,5.6,"10:25:58",1
"23/02/16","10:40",0.0,2.7,77.5,1025.1,297.4,2.6,4.5,324.0,0.06,-0.8,5.7,"10:33:22",1
"23/02/16","10:50",0.0,2.8,77.2,1024.6,297.2,2.6,4.1,324.9,0.07,-0.8,5.6,"10:47:04",1
"23/02/16","11:00",0.0,2.9,76.7,1025.1,312.2,2.5,4.9,346.0,0.08,-0.7,5.7,"10:51:36",1
"23/02/16","11:10",0.0,3.1,75.9,1025.1,316.2,3.4,5.9,344.6,0.10,-0.7,5.7,"11:06:00",1
"23/02/16","11:20",0.0,3.1,75.4,1025.1,292.2,2.8,5.0,333.9,0.11,-0.8,5.6,"11:16:40",1
"23/02/16","11:30",0.0,3.5,75.4,1025.3,295.5,2.7,4.7,327.0,0.13,-0.4,5.8,"11:24:48",1
"23/02/16","11:40",0.0,3.6,75.1,1025.3,282.5,2.7,3.9,327.6,0.15,-0.4,5.6,"11:37:52",1
"23/02/16","11:50",0.0,3.9,74.8,1025.3,307.0,2.7,6.4,328.6,0.16,-0.1,5.7,"11:41:36",1
"23/02/16","12:00",0.0,3.9,74.5,1024.9,298.6,3.0,6.8,310.8,0.15,-0.2,5.7,"11:52:40",1
"23/02/16","12:10",0.0,4.0,73.8,1025.3,304.7,3.1,5.5,323.1,0.16,-0.2,5.9,"12:05:04",1
"23/02/16","12:20",0.0,4.1,73.3,1025.1,311.4,2.8,5.2,338.8,0.18,-0.2,5.7,"12:19:20",1
"23/02/16","12:30",0.0,4.1,72.5,1024.9,268.7,3.1,5.4,253.4,0.12,-0.4,5.8,"12:26:56",1
"23/02/16","12:40",0.0,4.2,72.4,1024.9,298.4,2.8,5.6,320.8,0.10,-0.3,5.8,"12:38:40",1
"23/02/16","12:50",0.0,4.3,72.6,1024.9,296.5,3.0,5.8,325.0,0.11,-0.1,5.9,"12:48:08",1
"23/02/16","13:00",0.0,4.1,72.1,1024.1,287.8,3.5,6.0,325.4,0.09,-0.4,6.0,"12:56:48",1
"23/02/16","13:10",0.0,4.1,72.0,1023.9,291.7,3.2,5.2,322.5,0.08,-0.4,6.0,"13:08:56",1
"23/02/16","13:20",0.0,4.2,72.1,1024.1,312.7,3.5,5.6,319.3,0.10,-0.3,5.7,"13:17:44",1
"23/02/16","13:30",0.0,4.5,71.8,1023.4,317.0,2.6,4.4,327.7,0.09,-0.1,5.9,"13:28:24",1
"23/02/16","13:40",0.0,4.4,71.1,1024.1,327.6,3.0,6.5,332.6,0.09,-0.3,6.1,"13:37:52",1
"23/02/16","13:50",0.0,4.5,70.9,1023.9,309.4,2.3,4.9,340.8,0.12,-0.3,6.1,"13:40:40",1
"23/02/16","14:00",0.0,4.9,70.4,1024.1,313.7,2.1,3.3,335.3,0.11,0.0,6.2,"13:59:20",1
"23/02/16","14:10",0.0,4.7,69.6,1024.1,308.5,3.0,4.4,308.9,0.10,-0.3,5.9,"14:06:56",1
"23/02/16","14:20",0.0,4.6,69.7,1023.7,307.9,3.1,6.3,319.9,0.09,-0.4,6.2,"14:16:16",1
"23/02/16","14:30",0.0,5.0,69.8,1023.9,219.1,0.7,1.4,122.3,0.10,0.0,6.1,"14:25:28",1
"23/02/16","14:40",0.0,4.8,69.2,1023.7,293.7,2.5,4.8,337.0,0.08,-0.3,6.0,"14:30:02",1
"23/02/16","14:50",0.0,4.8,69.2,1023.7,322.4,2.6,4.0,332.8,0.08,-0.3,6.2,"14:40:32",1
"23/02/16","15:00",0.0,4.7,68.9,1023.7,309.1,3.0,6.2,309.8,0.08,-0.5,6.3,"14:55:52",1
"23/02/16","15:10",0.0,4.8,68.9,1024.1,283.8,2.7,4.1,254.3,0.08,-0.4,6.3,"15:04:34",1
"23/02/16","15:20",0.0,4.8,68.8,1023.4,307.1,3.0,5.0,329.8,0.07,-0.4,6.3,"15:16:40",1
"23/02/16","15:30",0.0,4.9,68.0,1023.9,337.4,2.5,5.0,312.1,0.07,-0.5,6.4,"15:22:48",1
"23/02/16","15:40",0.0,4.9,68.1,1023.9,303.6,2.5,5.0,336.0,0.07,-0.4,6.5,"15:35:36",1
"23/02/16","15:50",0.0,4.8,68.2,1024.1,299.0,2.8,4.8,291.7,0.05,-0.5,6.5,"15:44:10",1
"23/02/16","16:00",0.0,4.9,68.4,1023.9,300.9,2.5,4.4,341.6,0.05,-0.4,6.3,"15:51:28",1
"23/02/16","16:10",0.0,5.0,68.4,1024.4,319.0,2.3,4.0,311.3,0.06,-0.3,6.5,"16:03:28",1
"23/02/16","16:20",0.0,5.0,67.2,1023.9,342.8,2.7,5.4,348.2,0.04,-0.5,6.4,"16:15:36",1
"23/02/16","16:30",0.0,4.8,66.9,1023.4,309.5,3.1,4.9,325.8,0.04,-0.8,6.6,"16:20:24",1
"23/02/16","16:40",0.0,4.8,66.4,1023.7,291.6,2.8,4.3,320.3,0.03,-0.9,6.5,"16:36:32",1
"23/02/16","16:50",0.0,4.9,67.1,1023.9,329.0,2.2,3.6,330.6,0.03,-0.6,6.5,"16:44:56",1
"23/02/16","17:00",0.0,4.9,66.4,1023.9,340.6,2.2,3.9,348.0,0.03,-0.8,6.5,"16:58:08",1
"23/02/16","17:10",0.0,4.8,65.7,1023.9,329.4,2.7,5.5,354.5,0.03,-1.0,6.4,"17:02:32",1
"23/02/16","17:20",0.0,4.9,65.6,1023.7,319.2,2.6,4.8,311.4,0.02,-1.0,6.5,"17:16:02",1
"23/02/16","17:30",0.0,4.7,65.2,1024.1,328.4,2.6,3.9,339.3,0.01,-1.2,6.4,"17:26:10",1
"23/02/16","17:40",0.0,4.7,64.7,1023.7,327.4,2.7,4.8,314.7,0.01,-1.3,6.7,"17:39:54",1
"23/02/16","17:50",0.0,4.5,64.5,1024.1,335.7,3.4,5.2,333.8,0.00,-1.6,6.5,"17:40:56",1
"23/02/16","18:00",0.0,4.4,64.6,1023.9,315.9,2.8,6.0,346.2,0.00,-1.6,6.3,"17:51:20",1
"23/02/16","18:10",0.0,4.4,64.8,1023.7,303.1,3.2,4.9,306.3,0.00,-1.6,6.2,"18:01:20",1
"23/02/16","18:20",0.0,4.3,64.9,1024.4,295.2,2.6,4.4,253.7,0.00,-1.7,6.5,"18:10:32",1
"23/02/16","18:30",0.0,4.3,65.2,1024.1,315.7,2.7,4.4,322.1,0.00,-1.6,6.4,"18:22:16",1
"23/02/16","18:40",0.0,4.2,66.0,1024.1,311.6,2.5,4.1,343.3,0.00,-1.5,6.6,"18:38:08",1
"23/02/16","18:50",0.0,4.1,67.1,1024.1,310.5,2.1,2.7,313.9,0.00,-1.4,6.3,"18:44:16",1
"23/02/16","19:00",0.0,3.9,67.5,1023.9,297.6,2.0,2.9,324.4,0.00,-1.5,6.3,"18:50:40",1
"23/02/16","19:10",0.0,3.9,67.8,1024.4,306.7,2.0,3.4,318.9,0.00,-1.5,6.6,"19:08:16",1
"23/02/16","19:20",0.0,3.8,68.3,1024.1,294.0,1.6,2.8,320.6,0.00,-1.5,6.5,"19:10:32",1
"23/02/16","19:30",0.0,3.8,68.4,1024.4,314.0,2.1,4.0,341.8,0.00,-1.4,6.5,"19:23:44",1
"23/02/16","19:40",0.0,3.8,68.3,1024.4,323.7,2.7,4.2,332.7,0.00,-1.5,6.3,"19:39:28",1
"23/02/16","19:50",0.0,3.7,69.0,1024.4,330.1,2.1,3.6,345.3,0.00,-1.4,6.4,"19:41:44",1
"23/02/16","20:00",0.0,3.6,69.8,1023.9,305.7,2.2,3.2,312.2,0.00,-1.4,6.5,"19:58:24",1
"23/02/16","20:10",0.0,3.5,70.3,1023.7,320.1,1.8,2.7,315.3,0.00,-1.4,6.3,"20:01:28",1
"23/02/16","20:20",0.0,3.5,71.9,1024.1,330.2,1.6,3.3,337.8,0.00,-1.0,6.5,"20:12:08",1
"23/02/16","20:30",0.0,3.2,73.4,1023.9,334.2,1.3,2.0,324.2,0.00,-1.1,6.4,"20:27:18",1
"23/02/16","20:40",0.0,3.2,73.9,1023.7,322.2,1.5,2.1,302.7,0.00,-1.0,6.3,"20:35:18",1
"23/02/16","20:50",0.0,3.0,74.8,1024.1,329.4,1.7,2.6,310.0,0.00,-1.0,6.3,"20:48:18",1
"23/02/16","21:00",0.0,3.1,75.2,1024.1,338.2,1.5,2.0,309.8,0.00,-0.8,6.5,"20:50:10",1
"23/02/16","21:10",0.0,3.0,76.0,1023.7,342.5,1.0,1.9,346.5,0.00,-0.8,6.1,"21:01:04",1
"23/02/16","21:20",0.0,2.8,76.6,1023.9,318.0,1.6,2.0,325.5,0.00,-0.9,6.2,"21:12:42",1
"23/02/16","21:30",0.0,2.7,77.2,1023.9,313.2,1.7,2.2,318.7,0.00,-0.8,6.2,"21:29:14",1
"23/02/16","21:40",0.0,2.7,77.8,1023.9,326.8,1.5,2.2,338.4,0.00,-0.7,6.2,"21:34:12",1
"23/02/16","21:50",0.0,2.7,78.3,1023.9,329.3,1.7,2.2,339.6,0.00,-0.7,6.4,"21:44:20",1
"23/02/16","22:00",0.0,2.5,79.0,1024.1,318.3,2.0,2.6,326.1,0.00,-0.7,6.3,"21:54:56",1
"23/02/16","22:10",0.0,2.5,79.7,1024.4,323.7,2.0,2.8,325.6,0.00,-0.6,6.3,"22:03:50",1
"23/02/16","22:20",0.0,2.4,80.1,1024.1,316.7,2.3,3.2,341.0,0.00,-0.6,6.4,"22:12:58",1
"23/02/16","22:30",0.0,2.5,80.0,1023.9,325.2,2.7,4.2,337.3,0.00,-0.6,6.2,"22:25:32",1
"23/02/16","22:40",0.0,2.4,80.2,1023.9,327.5,2.5,3.4,336.0,0.00,-0.6,6.2,"22:31:06",1
"23/02/16","22:50",0.0,2.0,80.8,1023.7,322.2,2.5,3.2,330.1,0.00,-0.9,6.2,"22:46:14",1
"23/02/16","23:00",0.0,1.7,81.7,1023.4,330.5,2.5,3.7,345.7,0.00,-1.0,6.1,"22:59:36",1
"23/02/16","23:10",0.0,1.3,82.8,1023.4,329.3,2.7,3.4,341.1,0.00,-1.3,6.1,"23:05:42",1
"23/02/16","23:20",0.0,1.0,84.0,1023.0,297.4,2.3,3.1,330.2,0.00,-1.4,6.2,"23:11:54",1
"23/02/16","23:30",0.0,0.8,85.2,1023.2,294.2,2.3,3.3,307.9,0.00,-1.4,6.1,"23:22:16",1
"23/02/16","23:40",0.0,0.7,86.2,1023.0,307.0,2.6,3.6,316.6,0.00,-1.3,6.2,"23:38:56",1
"23/02/16","23:50",0.0,0.5,86.9,1023.2,307.7,2.3,3.1,324.4,0.00,-1.4,6.2,"23:46:24",1
"23/02/16","24:00",0.0,0.1,87.5,1023.0,334.0,2.0,2.7,333.4,0.00,-1.7,6.1,"23:50:56",1
